Theta_e
285 285 284 283 283 282 281 281 280 280 280 280 279 279 280 280 280 280 280 279 279 278 278 278 278 278 277 277 277 277 277 277 277 277 277 276 277 277 276 276 276 276 277 277 277 277 277 277 277 278 278 277 277 277 278 278 278 278 278 278 277 277 277 275 274 274 277 281 281 281 283 283 283 284 284 285 287 289 291 292 293 293 293 294 294
284 284 283 282 282 281 281 280 280 280 279 279 279 279 279 279 279 279 278 278 278 278 277 277 277 277 277 276 276 276 276 276 276 276 276 275 275 275 275 275 274 274 275 274 275 276 276 275 275 275 276 275 275 276 276 277 277 276 276 276 275 276 276 275 275 275 274 277 278 280 280 282 280 282 281 281 282 284 285 287 289 291 293 294 295
284 283 282 281 281 281 280 279 279 279 279 279 278 278 279 279 279 278 278 278 278 277 277 277 277 276 276 276 276 276 276 275 275 275 274 274 274 274 274 273 272 272 272 272 273 273 273 273 273 273 274 273 273 274 275 274 274 273 273 274 274 274 275 275 274 273 274 275 277 277 278 278 278 278 279 280 281 283 283 284 285 287 291 293 293
283 282 281 281 281 280 279 279 279 278 278 278 278 278 278 278 278 277 277 277 277 277 277 276 276 276 275 275 275 275 274 274 274 274 273 273 272 272 272 272 272 271 271 271 271 271 271 271 271 271 271 271 271 271 272 272 271 271 272 273 273 273 274 274 274 273 273 273 275 275 276 276 277 278 279 280 280 281 282 283 285 286 289 293 294
282 281 281 280 280 279 279 279 278 278 278 278 278 278 278 278 278 277 277 276 276 276 276 276 275 275 274 274 274 273 273 273 272 272 272 272 272 271 271 271 271 271 270 270 271 270 270 270 270 270 270 269 269 269 270 270 270 270 271 271 272 272 272 273 273 274 274 273 274 275 276 276 276 277 277 276 279 281 283 284 286 288 290 291 293
282 281 280 280 279 279 279 278 278 278 278 278 278 278 278 277 277 277 277 276 276 276 275 274 274 273 273 273 273 272 272 272 271 271 271 271 271 271 271 270 270 270 270 270 270 270 269 269 269 270 269 269 269 269 269 269 270 269 270 270 271 271 271 272 273 273 273 273 273 273 274 274 274 275 276 277 277 278 280 283 286 288 290 291 292
281 280 280 279 279 278 278 278 278 278 278 278 278 277 277 277 276 276 276 275 274 274 273 273 273 272 272 272 271 271 271 271 271 271 271 271 270 270 270 270 270 270 270 270 270 270 270 270 269 270 269 269 269 269 269 270 270 269 270 270 270 271 270 271 271 272 273 273 273 273 273 274 274 273 277 279 280 280 281 282 283 286 290 291 292
281 280 280 279 279 278 278 279 278 278 278 278 277 277 276 276 275 275 274 273 272 272 272 271 271 271 271 271 271 271 271 270 270 270 270 270 270 270 270 270 270 270 270 270 270 270 270 270 270 270 270 270 270 270 270 269 270 270 271 271 271 270 270 271 271 271 271 271 271 272 273 273 274 276 277 278 278 279 282 283 283 285 288 292 293
280 280 279 279 279 279 279 279 278 278 277 277 276 275 275 274 274 273 272 271 271 271 271 270 270 270 270 270 270 270 270 270 270 270 270 270 270 270 270 270 271 271 271 271 271 271 271 271 271 271 271 273 274 274 273 273 271 270 270 271 271 270 270 270 271 271 271 271 271 272 272 272 273 274 274 275 277 279 283 285 286 288 290 291 292
279 279 279 279 279 279 278 277 277 276 276 275 274 274 273 272 271 270 270 270 269 269 269 269 269 269 269 270 270 270 270 270 271 272 273 271 271 271 271 271 271 271 271 270 271 271 271 272 272 275 275 275 276 276 277 277 277 274 273 273 272 271 271 270 270 271 270 270 270 271 270 271 272 273 274 276 277 279 281 281 282 286 289 289 290
279 278 278 278 278 278 277 276 275 274 274 274 273 272 271 270 269 269 268 268 268 268 268 268 268 269 269 269 269 270 270 270 272 273 274 275 273 272 272 272 272 272 272 271 271 271 272 272 272 273 274 275 274 276 277 277 277 278 278 278 277 274 272 271 271 271 271 270 271 271 271 271 272 274 274 276 278 278 279 281 283 284 285 285 285
278 278 278 278 277 276 275 275 274 273 272 271 270 269 269 268 267 267 267 267 267 267 267 268 269 269 269 269 269 269 269 271 273 274 274 275 275 273 273 272 272 272 272 272 272 272 272 272 272 272 272 272 272 273 274 276 277 278 278 278 279 279 279 276 273 272 272 272 271 272 272 272 273 274 275 276 277 279 280 281 281 282 284 285 285
278 278 277 277 276 275 274 273 272 271 270 269 268 267 267 266 266 266 266 267 267 267 267 268 268 269 269 268 268 269 269 271 272 273 274 275 276 275 273 273 272 272 272 272 271 271 271 271 271 272 272 275 274 273 273 273 275 277 277 278 278 279 280 280 281 277 276 274 274 274 275 275 274 275 277 277 278 277 278 279 280 281 283 283 285
278 277 276 275 275 274 273 271 270 269 268 267 266 266 265 265 266 266 266 267 266 267 267 268 268 268 268 268 268 268 268 270 272 273 274 275 276 275 273 273 272 272 272 272 271 271 271 271 271 271 272 273 273 272 272 272 272 272 273 273 274 276 278 279 279 280 279 276 275 274 276 277 276 277 278 279 277 276 277 277 279 279 280 282 286
277 276 275 274 273 272 271 270 269 268 267 266 265 265 265 265 266 266 266 266 266 267 267 267 267 267 267 267 267 267 268 271 272 274 274 275 276 276 273 272 272 271 272 272 272 272 272 272 272 272 272 273 273 273 272 272 272 272 272 272 273 273 275 275 276 276 276 277 276 276 276 277 277 278 278 278 278 277 278 278 279 279 281 283 285
275 275 274 272 272 271 270 269 268 267 266 265 265 265 265 265 265 266 266 267 267 267 267 267 266 266 266 266 266 266 267 271 272 273 274 275 276 273 272 271 271 271 272 272 273 273 273 273 272 273 273 273 275 277 276 274 272 272 272 272 273 274 275 278 279 280 278 277 277 277 277 277 280 278 278 278 278 278 279 280 281 281 281 281 281
274 273 272 272 271 271 270 269 267 266 266 265 265 265 265 265 265 266 265 266 266 266 266 266 266 266 266 266 265 265 266 269 271 273 274 275 274 272 272 271 271 271 272 272 273 273 273 273 273 273 273 273 276 278 278 277 273 272 272 272 272 273 274 276 279 281 281 282 282 282 283 283 283 283 283 284 281 281 279 278 278 280 280 280 281
273 273 272 271 271 270 270 268 267 266 265 265 264 265 265 266 265 266 265 265 266 266 266 266 266 266 266 265 266 265 265 268 271 273 274 275 274 272 271 271 271 271 271 272 273 273 274 276 276 274 274 273 277 278 278 275 272 272 271 271 271 271 272 274 275 276 279 281 282 282 282 282 283 284 283 283 284 284 280 276 278 280 280 281 280
272 272 271 270 269 269 268 267 267 266 265 265 265 265 264 265 265 266 265 266 265 266 266 265 265 265 266 265 267 267 266 268 271 272 274 274 274 272 272 271 271 271 271 271 272 273 273 275 276 276 275 275 278 278 278 276 273 273 273 272 271 271 273 275 275 274 275 277 278 279 279 281 280 280 280 283 283 283 281 280 281 280 279 281 282
272 271 269 268 267 267 267 266 265 265 264 264 264 264 265 264 264 265 265 265 265 266 266 265 264 264 265 265 266 267 267 268 269 272 274 274 275 273 272 271 270 271 271 272 272 273 274 274 274 276 277 277 278 278 278 278 274 273 273 272 271 271 274 274 275 275 275 275 275 277 277 279 279 280 280 280 280 281 281 281 281 282 281 281 282
271 269 268 266 266 265 265 265 264 264 264 263 263 264 264 264 264 264 263 265 265 264 264 263 264 264 266 267 267 268 268 268 269 273 273 274 275 275 272 272 272 272 272 273 273 272 272 272 272 274 276 277 277 277 277 277 277 274 273 272 273 274 276 274 275 277 275 276 277 277 278 278 279 279 280 280 281 281 282 283 284 284 284 283 283
269 267 266 265 264 264 263 263 263 263 263 263 262 263 264 264 264 263 264 264 262 262 263 264 264 265 266 267 267 268 269 271 270 271 273 274 275 276 273 273 274 273 273 272 272 272 271 271 270 273 275 276 277 277 278 277 278 274 274 277 278 279 276 275 275 275 276 276 276 276 276 277 278 279 279 280 281 282 283 284 285 286 287 286 285
267 266 265 264 263 262 262 262 261 261 262 262 262 263 263 262 262 263 263 262 262 262 263 264 265 265 265 267 268 268 269 269 271 270 273 274 275 276 276 275 277 274 272 271 271 270 270 270 271 274 276 277 276 276 276 277 275 273 277 278 279 279 278 276 276 275 275 275 275 275 276 277 278 279 280 280 282 283 284 285 286 287 287 288 289
266 264 263 262 262 261 261 261 261 261 261 262 262 263 262 262 262 263 263 263 264 264 265 265 265 265 265 266 267 268 269 269 270 272 272 274 275 276 277 277 277 274 273 271 270 270 269 270 272 276 275 275 275 275 275 274 272 275 276 277 277 278 277 276 276 276 275 275 275 276 276 278 279 279 280 281 282 283 284 286 286 287 288 288 288
264 263 262 261 261 260 260 261 261 261 261 262 262 262 262 262 262 263 263 264 264 264 265 265 265 265 266 266 266 267 268 269 269 271 273 274 275 276 276 276 276 276 271 270 270 270 273 275 275 274 274 274 274 274 272 272 274 274 275 275 275 273 274 275 275 275 274 274 275 276 276 277 279 280 282 283 284 284 285 285 287 287 287 287 287
263 262 261 261 260 260 260 260 261 261 261 262 263 263 262 262 263 264 264 264 264 264 264 265 265 266 265 266 266 267 267 268 269 270 271 272 273 274 275 275 274 274 273 271 273 274 274 273 273 272 272 271 269 268 268 269 273 273 273 273 271 271 271 271 272 272 273 275 276 276 277 279 280 281 283 283 283 283 284 285 285 285 286 286 286
262 261 261 260 260 260 260 260 260 260 261 262 263 263 263 264 264 264 264 264 264 264 264 265 265 266 265 266 266 267 267 268 268 269 271 271 271 272 271 271 273 272 270 270 271 269 269 269 269 271 271 271 271 271 270 270 268 268 269 269 269 270 270 271 271 271 272 273 274 276 279 280 282 282 282 283 283 283 284 284 284 284 285 285 285
262 261 260 260 260 261 261 260 260 260 261 262 262 263 263 264 264 264 264 264 263 264 264 265 265 265 265 265 266 266 266 267 268 269 270 271 271 271 271 270 269 269 269 269 269 267 266 268 268 266 266 266 266 266 266 267 267 267 267 268 268 269 271 272 273 272 272 273 273 274 276 279 280 281 282 282 283 284 285 284 284 284 285 285 284
262 260 260 260 260 261 261 260 261 261 261 262 263 264 263 263 264 265 265 265 265 265 265 266 266 266 266 266 266 265 266 266 268 273 271 273 271 270 270 269 269 269 271 273 268 265 265 264 264 264 264 264 264 264 265 265 265 266 267 267 268 268 268 269 268 269 270 271 271 271 272 274 277 281 282 282 283 283 285 284 284 284 285 285 284
261 260 260 260 260 260 260 261 261 261 261 261 261 261 263 266 266 264 264 267 268 269 269 267 268 268 267 267 268 266 266 268 273 273 273 273 273 274 273 273 272 271 272 272 268 263 263 262 262 262 262 263 262 263 263 264 264 264 265 267 267 267 267 268 268 269 270 270 270 270 270 272 274 277 281 282 283 283 284 284 284 284 284 284 283
261 260 260 260 260 260 260 260 260 261 261 261 261 261 261 264 268 268 268 268 269 269 269 269 270 270 269 267 268 270 271 272 272 272 273 273 273 273 273 272 272 272 272 267 263 262 261 261 261 262 262 262 262 262 263 263 263 264 264 265 266 266 267 267 268 268 269 269 269 270 270 271 272 274 276 280 282 283 283 284 284 284 284 284 284
261 260 260 260 260 260 260 260 261 261 261 262 262 262 262 262 264 268 269 268 269 269 269 269 269 269 270 269 269 268 270 271 272 272 272 272 272 272 272 271 271 271 270 269 262 261 261 261 260 261 261 261 261 262 263 263 263 264 264 264 265 266 266 266 268 268 268 268 268 269 269 270 271 272 273 276 278 281 283 283 284 284 284 285 285
261 261 261 260 260 261 261 260 261 261 260 260 261 262 263 263 262 263 266 268 268 269 269 269 269 269 269 270 270 270 270 271 271 271 271 271 272 271 271 270 270 270 269 263 261 260 260 260 260 261 261 261 261 262 262 263 263 264 264 264 264 265 266 267 268 268 268 268 269 268 269 269 270 270 272 274 276 278 281 283 284 284 284 284 285
262 261 261 261 261 261 260 260 261 261 261 261 261 262 262 263 263 263 262 262 264 267 267 267 268 268 268 269 270 270 270 270 270 271 271 271 271 270 269 265 268 269 267 261 260 260 260 260 260 260 261 261 261 262 262 262 263 263 264 264 265 266 266 268 267 267 268 268 267 267 268 268 269 269 269 271 273 275 278 281 284 284 284 284 284
262 261 260 261 261 261 261 261 261 260 260 260 260 260 260 259 259 260 261 261 260 260 260 261 264 267 266 266 268 269 270 270 270 270 270 270 269 268 266 261 260 260 261 261 260 260 259 259 260 260 260 260 261 261 262 262 263 263 263 264 264 265 266 266 267 268 267 267 267 266 267 267 267 268 268 268 269 271 274 277 281 284 284 284 284
262 261 261 261 261 262 261 260 260 260 259 260 260 260 260 259 259 258 258 257 258 258 258 259 258 262 265 266 267 268 269 269 269 269 269 269 268 266 259 259 259 259 259 260 259 259 260 260 260 260 260 261 261 261 262 262 263 263 263 264 264 265 265 266 267 267 267 267 266 266 266 266 266 266 267 267 268 269 272 275 278 281 284 285 285
261 261 261 261 261 261 260 260 260 260 260 259 258 258 259 258 258 258 257 257 257 257 258 257 258 259 262 261 263 265 268 267 267 267 267 267 266 261 259 258 258 258 258 258 259 259 258 259 260 260 260 260 261 261 262 262 263 263 265 264 264 265 266 267 267 267 266 266 266 266 265 265 265 265 266 266 267 268 270 273 276 279 283 285 285
261 261 261 260 259 259 258 259 259 259 257 258 258 258 257 257 257 257 257 256 257 257 256 256 258 257 256 257 262 261 262 264 264 263 263 262 259 258 258 258 258 257 257 257 258 258 258 258 259 259 260 260 261 261 262 262 263 263 263 264 264 265 269 268 267 267 266 266 265 265 265 265 265 265 265 265 266 267 268 271 273 277 282 285 286
260 261 261 261 260 259 258 258 257 257 257 257 257 257 256 256 256 256 256 256 256 256 256 255 256 256 255 257 257 261 260 257 256 255 256 256 257 257 257 257 257 256 257 257 257 257 257 258 259 259 260 260 261 261 261 262 262 263 263 263 264 265 266 266 267 266 266 265 265 265 265 265 265 265 265 265 265 266 267 269 272 275 279 284 286
259 259 260 261 260 259 257 256 256 256 256 256 256 256 256 255 255 255 255 255 255 255 255 255 255 254 255 255 257 260 257 256 254 254 254 255 255 255 256 255 256 256 256 256 256 256 257 257 258 259 259 260 261 261 261 262 262 263 263 263 264 265 266 266 266 266 265 265 265 265 264 264 264 265 265 265 266 267 268 269 272 275 278 285 288
259 259 260 261 259 257 255 255 255 255 255 255 255 255 255 255 255 255 255 255 255 254 254 253 254 253 254 258 263 262 256 254 253 253 253 254 254 254 255 255 255 255 255 255 256 256 256 257 258 258 259 260 260 261 261 262 262 263 263 264 265 266 266 267 267 266 265 265 265 264 264 264 264 264 264 265 268 268 269 270 272 275 279 285 289
259 259 258 258 257 255 255 255 255 254 255 254 255 255 254 254 254 254 254 254 254 254 254 253 253 252 256 261 262 261 254 253 253 252 253 253 253 254 254 254 255 255 255 255 255 255 256 257 257 258 259 259 260 260 261 261 262 262 263 263 265 266 266 266 266 266 265 265 264 264 264 264 265 265 265 267 266 267 268 269 272 276 280 286 289
259 258 257 255 255 255 255 254 254 254 254 254 254 253 253 253 253 253 253 254 253 253 253 253 253 252 253 258 258 258 253 252 252 251 252 252 252 253 253 254 254 255 255 255 255 256 256 257 257 258 258 259 260 260 261 261 262 262 263 264 266 266 266 266 266 266 265 265 264 264 264 264 264 264 264 265 266 267 268 270 273 276 281 287 289
257 256 255 255 255 255 254 253 253 253 253 253 252 252 252 252 253 253 252 252 252 252 252 252 252 251 251 252 253 252 251 251 250 251 251 252 252 252 253 254 254 254 254 254 255 256 256 256 257 257 258 259 260 260 261 262 263 263 263 264 266 267 267 266 266 266 265 264 264 264 264 264 264 264 264 265 266 266 268 270 273 277 282 286 289
256 255 255 254 254 253 253 253 253 252 251 251 251 251 251 252 252 252 252 252 251 251 251 251 251 250 251 250 250 250 250 250 250 250 251 251 251 252 253 253 253 253 253 254 254 255 255 256 256 257 257 258 259 260 261 262 263 264 264 266 267 267 267 267 267 267 266 265 264 264 264 264 263 264 264 265 266 266 267 269 271 276 280 286 288
255 255 254 253 253 252 252 252 251 251 251 251 251 251 251 251 251 251 252 252 252 251 251 251 250 250 250 250 250 250 249 249 249 250 251 251 251 252 252 252 252 252 253 253 254 254 255 256 256 256 257 258 259 260 262 263 263 264 265 268 268 268 269 268 268 267 266 265 264 264 264 264 263 264 265 265 265 266 266 268 270 275 281 286 287
255 254 253 253 252 252 251 251 251 251 252 252 251 251 251 251 251 250 251 251 251 251 251 250 250 250 250 249 249 249 250 250 250 250 249 249 250 251 252 252 252 252 252 253 253 254 255 255 256 256 257 258 259 260 262 263 263 264 266 268 268 269 270 269 268 267 266 266 265 264 264 263 263 263 264 264 264 265 266 267 270 274 282 285 286
254 254 253 253 252 251 251 251 251 251 251 251 251 251 251 251 250 250 250 249 249 250 250 250 250 250 250 250 250 250 250 250 250 250 250 250 250 251 251 251 251 252 252 252 252 253 254 255 255 256 257 258 259 261 262 263 263 264 266 268 268 270 270 269 268 268 267 266 265 265 264 264 263 263 264 264 264 264 265 265 268 272 280 285 285
254 254 253 252 252 251 251 251 251 251 251 251 251 251 250 250 250 250 250 251 251 251 251 250 250 250 250 250 249 250 249 250 249 249 250 251 250 251 251 251 251 251 251 251 252 252 253 254 255 256 257 258 260 261 262 262 263 263 266 268 269 271 270 270 269 268 267 266 265 265 264 264 263 263 264 263 264 264 264 265 267 270 274 283 285
254 253 253 252 252 252 252 252 252 252 251 251 251 251 250 250 250 251 252 252 253 252 252 251 250 250 250 250 249 249 250 250 250 250 250 251 251 251 251 251 250 250 251 251 251 252 253 253 254 255 257 258 260 261 262 262 262 264 267 268 270 270 270 270 269 268 267 266 265 265 264 264 264 263 263 263 263 263 264 264 266 268 270 273 282
254 254 254 253 253 253 253 253 252 252 252 252 252 251 251 251 252 252 252 252 252 252 252 252 251 250 249 250 250 249 249 249 249 249 250 250 250 251 251 250 250 250 250 250 251 252 252 253 254 255 256 258 259 261 262 262 262 265 268 269 269 270 270 270 269 268 268 267 266 265 264 264 263 263 263 263 263 263 263 264 265 265 267 269 272
Wind_Speed
15 14 12 12 14 14 14 12 12 11 11 10 9 9 8 8 7 6 5 6 6 6 7 7 7 7 7 7 8 8 8 8 7 7 8 9 9 10 11 12 13 12 13 14 14 14 15 17 18 17 17 17 16 16 14 17 18 15 16 18 17 14 19 17 19 22 18 20 20 18 17 19 15 16 19 17 17 18 20 18 20 19 19 17 18
15 14 13 13 15 14 14 12 12 11 11 10 9 9 8 8 7 6 7 6 6 7 7 6 6 7 8 8 8 8 8 8 8 7 8 9 10 8 9 11 12 13 12 14 14 13 14 17 17 17 15 17 16 17 16 14 15 17 14 17 19 14 19 17 18 20 19 19 17 17 13 17 17 18 16 18 19 23 22 20 19 20 19 19 18
14 13 13 14 15 14 13 12 12 12 12 10 10 9 8 8 8 7 7 6 6 6 6 7 7 7 8 8 8 9 9 8 7 7 8 9 10 10 9 10 11 12 13 13 14 13 15 15 16 15 13 15 16 16 15 16 14 17 18 15 20 19 18 19 19 19 19 23 17 17 15 12 18 18 19 18 21 22 23 23 21 20 20 19 17
14 14 14 14 15 14 13 12 13 12 12 10 11 10 9 8 8 8 7 6 7 6 7 7 7 7 8 9 9 9 8 7 7 8 9 9 9 10 10 11 11 12 12 13 13 13 15 15 16 15 15 16 16 16 16 17 17 17 19 18 19 19 19 18 20 20 20 22 19 19 13 18 16 19 17 18 19 21 20 21 23 24 23 18 17
14 14 15 16 15 14 14 13 13 13 12 10 11 10 10 9 8 8 7 7 7 6 6 6 7 7 8 8 8 8 7 7 8 8 8 9 10 10 11 11 11 12 12 12 13 14 15 15 16 16 16 17 17 17 16 20 17 17 18 17 17 19 16 18 19 18 17 20 18 16 16 16 20 16 17 18 21 20 20 20 20 21 21 20 17
14 15 15 15 14 15 14 13 13 13 12 11 11 10 9 9 8 8 7 7 7 6 6 5 5 7 8 8 8 7 7 7 8 9 9 9 9 10 10 11 11 12 12 12 12 13 16 17 17 16 17 18 18 18 17 20 19 18 19 18 18 17 18 19 18 19 20 19 20 19 18 18 18 17 17 17 18 20 19 20 21 20 19 18 16
15 15 15 14 14 14 14 13 12 12 11 10 10 9 9 9 8 8 7 6 6 6 6 6 6 7 8 8 7 7 7 8 8 9 9 9 10 10 11 11 11 11 12 14 15 16 16 17 18 17 19 19 19 18 19 19 19 19 19 19 18 18 18 17 18 19 18 19 18 19 18 18 17 20 18 15 18 18 18 17 18 19 17 17 17
15 14 14 14 13 14 12 12 12 11 10 10 9 9 9 8 7 7 6 6 6 6 6 6 6 7 7 7 7 6 7 8 8 8 9 9 9 9 9 11 13 14 15 15 16 16 17 17 18 18 19 19 19 19 19 19 19 19 17 18 17 17 17 17 17 17 17 18 18 17 17 17 17 17 17 15 16 16 16 16 18 19 17 15 13
14 14 14 13 13 13 12 11 11 10 10 10 9 9 8 7 7 6 6 5 4 5 5 5 7 8 8 7 7 7 7 7 6 7 7 8 8 10 12 12 12 14 14 14 16 17 15 16 16 18 18 24 29 27 26 23 16 17 17 17 18 16 17 15 15 15 16 16 17 15 16 16 16 17 18 16 17 17 15 12 15 16 14 11 9
14 14 14 13 13 13 12 11 11 10 10 10 9 9 8 7 6 5 5 5 4 4 5 6 7 8 7 7 6 6 6 6 8 13 12 10 11 10 11 12 13 13 15 16 15 15 17 17 18 26 29 30 31 32 32 33 34 27 23 17 16 17 15 16 15 15 15 15 17 14 15 18 18 18 19 19 19 19 18 17 18 16 11 9 8
13 13 13 12 13 12 11 11 11 11 10 9 8 8 7 6 6 5 5 5 5 5 5 7 8 7 7 6 6 6 6 6 12 13 14 17 13 12 11 12 12 13 14 14 15 17 17 17 17 21 23 24 23 30 30 32 33 33 35 36 30 22 17 15 15 15 14 15 14 18 15 21 20 19 20 19 17 18 16 15 14 16 14 8 8
12 12 12 12 12 12 11 11 10 10 9 9 8 7 7 6 6 5 5 5 5 5 7 8 7 7 6 5 6 6 7 10 14 14 15 16 15 12 11 12 12 13 13 14 15 16 17 18 17 14 17 19 19 20 24 31 32 33 34 33 33 35 34 26 18 14 14 15 15 16 16 16 18 18 18 17 17 17 17 14 15 15 15 10 7
11 11 11 11 11 10 10 10 9 9 9 9 8 7 7 6 6 6 6 5 5 6 7 7 7 6 5 5 6 7 8 11 13 15 15 16 17 16 11 12 13 13 14 16 17 16 15 16 15 14 14 23 20 20 21 21 26 32 33 34 33 34 33 35 34 26 19 19 19 16 15 17 18 18 18 19 18 20 19 17 16 16 15 16 13
9 10 9 9 10 10 9 9 10 9 9 9 8 8 7 6 6 5 5 5 6 7 7 7 6 6 5 4 5 7 8 10 14 15 15 17 18 16 12 13 13 15 16 16 17 17 18 17 17 19 19 20 20 20 22 22 21 20 20 20 19 23 30 33 35 35 30 22 19 20 17 16 19 19 20 19 21 18 17 19 17 17 18 17 16
6 8 8 8 7 8 9 9 10 10 9 9 8 8 7 7 7 6 5 6 6 6 6 6 6 5 4 4 5 7 8 13 13 15 16 17 18 17 12 13 13 13 16 17 17 16 15 17 18 18 18 16 13 21 21 20 19 17 18 19 20 21 22 21 21 20 18 19 19 20 21 22 20 21 21 20 21 21 19 20 20 20 20 20 18
7 6 7 7 7 8 9 10 10 10 10 9 8 8 7 7 7 6 5 5 5 5 4 5 5 5 5 5 5 7 8 13 14 15 16 17 19 13 11 12 13 14 14 14 17 17 17 19 18 18 17 20 26 32 28 22 19 19 20 19 18 18 18 20 27 27 22 21 18 19 20 21 26 20 21 20 20 19 17 19 19 18 17 16 17
9 9 8 9 8 9 9 10 10 10 9 9 8 8 8 7 6 5 5 5 5 5 5 5 4 4 4 4 6 7 8 11 13 15 16 18 15 11 11 11 13 13 14 18 18 18 19 19 20 21 22 22 26 32 32 30 20 19 19 19 18 17 17 16 25 32 34 37 39 39 40 38 36 36 34 37 28 22 16 19 21 15 15 17 15
11 9 9 8 8 8 7 8 9 9 8 8 8 6 6 5 5 5 6 6 6 5 4 4 4 4 4 5 5 7 8 11 14 15 16 17 16 12 12 13 11 13 17 14 15 18 18 28 25 20 22 23 30 33 33 27 18 17 19 21 22 21 20 19 17 19 30 34 36 38 39 37 37 38 37 37 37 29 20 21 19 14 17 16 17
10 10 10 10 9 8 8 7 7 8 7 7 6 6 6 5 5 5 4 4 4 4 5 4 4 3 3 4 9 9 8 9 13 14 16 17 14 10 10 11 15 15 13 17 17 13 14 15 21 24 26 27 34 31 32 26 19 17 18 19 20 20 17 14 17 19 17 16 17 18 22 26 24 21 22 34 36 33 25 22 17 17 20 18 16
14 12 10 10 9 9 9 9 8 8 8 7 6 5 4 4 4 5 4 4 4 3 4 4 3 3 3 5 6 6 7 6 8 14 15 17 18 13 10 13 14 15 17 13 12 14 16 14 18 27 30 31 31 33 31 32 23 19 17 17 18 21 17 16 19 18 19 20 21 20 21 19 18 17 17 18 20 22 23 21 19 18 18 19 18
15 11 10 10 10 10 8 8 9 8 7 7 6 5 4 5 5 5 4 3 3 2 3 3 3 3 3 4 5 5 5 6 7 14 15 17 20 18 10 11 12 14 13 15 16 16 15 16 18 25 30 31 32 33 34 35 33 23 20 18 19 21 23 17 20 27 20 19 18 17 17 17 17 16 16 17 16 16 17 19 20 20 21 19 18
11 12 11 10 10 10 10 9 8 8 8 7 7 5 5 4 4 4 4 3 3 5 5 3 1 1 2 4 4 4 5 9 8 12 15 18 19 21 13 12 15 15 16 15 15 14 17 19 17 23 32 33 34 35 35 32 33 21 20 29 34 34 25 19 16 14 15 15 15 16 16 16 16 15 16 16 15 16 16 16 17 19 19 20 19
12 12 12 12 11 11 11 11 9 7 7 7 7 7 6 5 4 4 4 3 5 5 4 2 0 1 2 3 3 3 4 6 11 11 16 18 19 20 22 19 25 16 14 15 15 18 18 17 18 30 34 35 34 32 31 32 27 19 29 31 32 34 28 16 15 14 14 15 15 15 15 15 15 16 14 14 14 15 15 15 16 17 17 17 18
12 12 11 12 12 10 11 12 11 9 9 8 7 7 6 6 5 5 5 5 5 4 2 1 0 1 2 3 3 4 5 6 10 14 15 19 20 22 22 24 24 16 14 13 16 18 17 18 21 34 33 31 30 29 29 28 21 28 29 30 31 27 13 11 11 13 14 15 16 16 15 15 15 14 14 13 13 14 14 14 13 15 14 12 13
13 13 12 11 10 10 9 9 10 9 9 9 8 7 7 6 6 5 5 5 4 2 2 1 0 1 3 4 4 5 6 7 8 11 17 19 20 21 22 24 23 23 15 12 14 15 22 31 32 29 28 28 29 27 23 23 26 27 29 28 25 11 11 10 10 11 13 14 14 15 15 16 16 16 14 14 14 14 13 11 11 11 10 11 11
18 13 11 11 11 11 12 10 9 9 9 7 7 7 7 7 6 6 5 5 4 3 1 1 0 1 3 4 5 6 6 7 8 9 11 13 14 20 23 22 22 23 21 16 22 26 27 26 27 26 24 22 18 16 15 16 24 26 25 23 13 11 10 10 10 10 11 12 13 15 15 14 15 15 14 14 13 13 12 12 10 11 10 10 10
14 13 12 12 12 12 12 10 9 8 8 7 6 5 6 5 5 6 5 5 4 3 3 2 0 2 3 4 5 6 6 7 8 8 8 9 10 12 13 13 18 18 13 11 14 13 16 17 16 22 20 24 23 22 21 20 17 15 13 12 12 11 11 10 11 12 12 13 14 14 14 15 14 13 13 13 14 13 12 12 12 12 10 10 11
14 13 14 11 11 11 10 13 12 8 7 8 7 6 5 5 6 6 6 6 5 4 3 2 1 2 3 4 5 5 6 6 7 8 9 10 10 9 9 9 11 10 11 12 12 13 13 15 17 12 13 12 12 11 11 12 13 13 12 12 12 12 15 18 17 12 12 12 12 13 14 14 14 14 13 12 13 13 13 14 13 13 11 11 12
13 13 12 10 10 9 8 10 9 9 8 7 6 6 6 6 6 4 3 3 4 5 3 2 1 2 2 3 4 5 6 6 7 13 13 16 14 12 12 11 10 10 15 22 14 10 9 10 10 12 12 13 13 12 12 12 11 11 13 12 11 11 11 10 11 11 12 12 13 13 13 12 13 13 13 13 13 12 10 12 12 13 12 12 14
12 11 10 9 9 9 8 8 7 7 8 7 6 3 2 6 5 5 6 10 9 5 3 2 1 1 2 3 3 4 4 6 14 17 17 18 19 20 19 19 18 16 20 23 16 10 11 11 11 12 13 14 14 14 14 13 13 13 12 15 13 12 13 12 12 12 12 13 13 13 13 13 13 13 12 13 12 11 12 12 12 11 12 13 12
10 10 10 9 10 10 9 8 7 7 7 7 6 6 4 5 10 10 8 9 6 4 4 2 1 2 1 0 3 7 9 12 14 15 16 17 19 19 20 19 18 19 22 15 10 9 10 11 12 12 12 13 13 14 14 15 15 14 14 13 11 13 14 13 13 13 13 13 13 12 12 12 13 13 13 13 12 11 10 10 11 12 13 12 12
12 10 10 10 12 11 9 9 9 8 7 6 6 7 6 5 5 10 11 7 7 6 5 3 4 4 4 4 4 3 8 11 13 14 16 17 18 19 19 18 18 19 19 18 8 9 10 11 11 12 12 13 14 14 14 14 14 14 15 15 14 13 13 14 15 14 13 13 12 13 12 12 11 12 13 13 14 13 12 12 11 12 12 12 13
12 10 9 10 10 11 10 9 8 8 8 7 6 6 7 7 7 7 7 7 5 7 6 6 6 5 6 7 10 9 9 11 13 14 16 17 19 19 20 19 19 21 18 10 8 10 10 10 11 12 12 12 13 14 14 14 14 14 14 15 15 16 15 16 18 14 12 12 13 13 13 13 13 13 14 14 13 13 12 12 12 12 12 12 12
20 11 11 12 11 10 9 8 9 8 7 7 6 6 5 5 6 6 5 3 4 5 3 5 7 7 8 10 12 12 12 13 13 14 16 18 20 20 18 12 16 18 16 9 9 9 10 10 11 11 12 12 13 14 14 14 13 14 15 14 13 14 17 18 15 12 10 11 12 13 14 13 13 13 13 13 13 13 13 13 12 11 12 12 12
14 18 27 17 8 10 8 8 7 7 7 7 6 5 6 4 5 4 4 6 5 3 1 1 4 7 7 8 12 12 12 12 13 14 16 17 18 18 14 9 11 10 10 8 9 9 10 10 11 12 11 12 13 13 14 14 13 14 14 15 14 13 13 13 11 11 12 13 14 13 13 14 14 13 13 13 12 12 12 12 12 12 12 12 13
12 11 9 11 7 7 7 7 7 7 8 7 6 6 6 5 4 4 4 4 4 3 2 0 1 3 7 10 11 10 11 12 12 13 14 16 16 15 9 9 8 9 9 10 9 10 10 10 10 11 11 12 12 12 13 14 14 14 13 14 16 16 14 12 12 13 14 14 13 13 13 12 13 13 13 14 15 14 13 13 12 13 12 12 12
11 10 9 8 6 6 6 6 6 8 8 7 6 5 4 4 3 3 2 3 2 1 0 0 1 1 4 4 9 10 12 11 11 10 13 15 16 10 6 6 7 8 9 10 10 10 11 11 11 11 11 12 13 13 14 14 14 13 15 15 14 13 12 13 15 15 14 13 13 13 14 13 13 13 12 14 13 13 13 13 13 14 15 14 13
14 13 12 12 11 9 8 7 8 11 8 7 6 5 5 4 4 3 3 3 2 2 1 0 1 1 2 2 9 5 7 9 11 11 13 14 11 7 7 6 6 7 9 9 10 10 10 11 11 12 12 12 13 13 14 14 14 14 14 15 15 12 22 19 16 14 14 13 14 14 12 11 11 12 13 13 14 13 13 13 12 12 14 16 15
13 19 21 20 13 9 7 8 7 7 6 6 6 5 4 5 4 3 3 2 2 1 1 0 1 2 2 2 4 6 7 6 6 5 6 5 5 5 5 6 6 7 8 9 10 11 10 11 12 12 12 12 12 13 14 14 14 14 14 14 14 13 17 14 14 14 14 13 14 13 13 12 12 13 12 12 13 13 14 14 14 13 14 14 13
11 11 14 20 11 12 8 7 6 7 5 6 6 5 6 5 5 4 4 4 3 2 2 1 1 1 1 1 3 3 3 3 2 3 3 5 5 5 5 6 7 7 8 9 10 10 11 12 12 13 14 13 13 13 14 14 14 14 14 13 12 15 18 14 14 15 15 15 14 14 14 14 11 12 12 12 13 13 14 14 14 14 15 15 14
9 9 12 14 13 12 8 7 6 6 6 5 6 5 5 4 4 4 4 3 3 2 2 2 2 1 1 3 5 5 1 1 1 1 3 3 4 4 5 5 6 7 8 9 9 10 11 11 12 12 13 12 12 13 14 14 14 14 13 14 14 16 16 15 16 15 16 16 15 15 15 15 14 12 14 13 15 15 14 14 14 15 15 15 13
10 10 10 10 12 9 8 7 6 9 6 4 5 5 4 4 5 4 4 3 3 3 3 2 2 1 2 2 5 6 3 0 0 2 2 3 3 4 4 5 5 5 7 8 9 10 11 12 12 13 14 14 13 13 13 14 14 14 14 14 15 17 17 17 17 18 17 15 15 15 15 15 15 15 15 16 14 13 13 13 13 14 14 13 11
15 13 10 8 9 9 9 8 7 7 6 5 4 4 4 5 4 3 3 3 2 2 3 3 2 1 1 3 4 5 2 1 1 1 1 3 3 4 4 5 5 6 7 8 8 9 9 11 12 12 12 14 14 14 14 14 14 13 13 13 15 18 18 18 19 18 17 16 16 16 17 16 15 13 12 13 13 13 12 13 14 13 13 11 8
19 15 9 10 8 13 9 7 6 5 5 6 6 5 4 4 4 3 4 2 2 2 2 2 1 1 0 1 2 1 1 1 1 1 2 3 3 4 4 5 6 6 8 8 9 9 10 10 11 12 13 13 14 15 13 12 14 14 12 13 15 17 18 19 19 19 19 19 18 17 17 14 15 13 13 13 12 13 13 13 14 14 13 10 7
12 12 13 11 10 8 7 6 7 7 7 5 5 5 3 4 4 3 3 3 3 2 2 2 1 1 0 0 0 1 1 1 1 2 2 3 3 4 4 6 6 7 8 9 8 9 10 11 11 12 13 13 14 15 15 15 16 16 12 14 15 16 18 20 19 18 18 19 17 13 13 13 12 12 14 13 13 13 13 13 14 15 15 11 7
16 14 17 13 10 7 8 7 5 6 6 6 6 5 4 3 3 3 3 3 3 3 2 2 1 1 1 0 0 1 1 0 1 1 3 3 3 4 4 5 5 7 7 8 9 10 10 11 11 12 13 14 15 15 15 16 16 14 13 14 15 14 16 18 18 17 18 18 17 16 14 14 14 15 18 16 13 13 13 15 15 15 14 10 6
15 11 13 9 10 9 8 6 6 6 6 6 5 6 5 4 3 3 2 2 3 2 3 2 2 1 1 0 0 1 0 0 1 2 3 4 4 4 4 5 6 6 7 8 9 9 10 11 12 12 13 13 14 16 16 15 15 12 13 14 15 16 17 20 19 18 18 18 17 15 16 15 14 14 18 16 14 14 15 14 15 18 15 7 5
9 9 9 10 9 8 7 6 8 8 5 5 5 4 4 4 4 3 3 2 2 2 2 2 2 1 1 0 0 0 0 1 1 3 3 3 3 4 4 5 6 7 8 9 9 9 10 11 12 13 13 14 14 14 15 16 16 13 12 15 16 19 25 28 20 19 19 18 16 17 16 16 14 15 15 16 14 14 15 15 16 15 14 6 3
8 8 9 7 6 7 6 7 5 6 6 5 5 5 3 4 3 3 3 2 3 2 2 2 1 1 1 1 0 0 1 2 2 2 3 3 3 4 4 5 6 7 7 9 9 10 11 11 12 12 13 13 13 14 16 15 16 13 14 16 23 37 34 34 25 22 27 19 16 17 17 16 17 17 16 15 15 14 14 14 14 15 14 9 2
8 8 7 7 6 6 5 5 6 6 5 4 5 4 4 3 3 3 3 3 2 2 2 2 2 1 1 0 0 0 1 1 2 2 3 3 3 4 5 6 7 7 7 8 9 10 10 11 12 12 13 13 14 14 16 13 12 14 15 21 33 35 35 34 32 34 27 17 17 16 16 17 16 16 16 16 15 17 15 15 15 14 12 11 8
8 7 6 7 7 7 6 6 5 5 5 4 4 5 5 4 3 3 3 2 2 2 2 2 2 1 0 0 0 1 1 1 2 2 2 3 3 4 5 6 7 8 8 9 9 9 10 10 11 12 13 14 14 15 15 16 14 13 25 34 34 35 35 34 27 31 36 26 16 17 16 18 18 18 17 17 16 16 19 18 15 13 11 10 11
Wind_Direction
169 171 165 162 161 164 164 163 162 161 162 168 173 180 185 193 199 202 200 209 205 214 219 228 235 240 246 251 255 259 262 265 266 268 269 271 271 273 274 274 274 272 274 272 269 270 270 270 270 270 271 272 273 273 271 269 265 262 263 262 260 261 263 264 266 269 265 261 271 275 282 288 287 289 290 291 289 287 287 286 290 287 283 278 271
172 167 165 162 164 163 162 161 161 160 163 167 174 178 185 189 193 193 203 205 204 215 221 227 235 239 244 249 252 255 257 258 259 261 264 267 268 269 271 274 273 275 274 273 273 271 272 272 273 276 278 277 277 276 274 273 271 271 270 269 269 266 266 268 267 273 277 274 275 279 280 277 278 277 283 286 286 285 283 285 285 283 279 277 274
166 162 162 163 164 162 159 161 159 161 164 168 176 180 182 186 187 193 199 199 204 210 218 224 230 235 244 248 249 251 253 255 256 256 261 264 268 267 267 270 271 271 271 272 274 277 276 276 278 279 279 279 277 276 278 279 281 278 275 270 268 267 267 266 271 271 271 271 275 282 280 282 277 284 283 279 278 276 279 280 281 281 278 272 274
164 161 162 163 162 159 161 159 159 162 167 172 176 179 179 182 185 191 194 197 201 206 212 222 229 237 243 246 247 249 251 256 257 258 259 262 265 267 267 265 267 268 269 272 275 276 276 277 277 277 277 277 277 276 275 276 276 274 272 269 269 269 267 269 266 268 273 279 274 275 287 285 277 274 279 280 277 275 274 274 273 270 266 264 267
161 163 161 160 163 161 161 160 162 165 167 171 175 176 178 178 182 189 190 197 202 205 215 219 230 237 241 243 246 249 253 255 260 261 260 259 262 265 267 267 266 267 268 269 273 277 275 273 276 277 276 275 276 273 274 273 273 273 271 271 269 270 270 267 266 263 267 269 279 276 282 276 279 280 275 278 279 273 271 267 267 265 263 262 261
162 163 162 161 163 163 161 161 163 165 166 168 171 174 174 179 181 185 189 196 200 208 214 222 226 238 242 246 248 252 253 255 256 259 262 263 264 265 267 266 267 269 270 273 274 273 278 272 271 269 270 268 268 269 268 271 270 268 268 269 267 267 270 270 268 268 267 270 272 278 276 276 280 276 274 271 270 275 273 265 261 262 265 264 257
164 163 164 161 160 162 161 161 160 162 164 166 165 170 174 177 180 179 182 190 199 209 215 220 231 236 243 245 246 251 254 255 257 260 262 263 265 265 267 270 270 273 280 284 282 277 271 271 269 267 266 264 264 265 268 268 266 264 264 263 262 264 263 263 267 269 269 270 270 271 275 274 274 279 279 275 277 278 280 282 278 273 266 262 261
165 163 160 162 161 160 157 154 155 158 159 158 162 167 168 170 173 171 174 187 199 212 215 223 232 238 242 245 249 251 256 256 259 260 263 265 268 268 273 279 283 280 276 275 275 273 270 266 266 265 264 262 260 257 256 259 266 264 265 260 258 260 262 263 263 263 266 267 268 271 270 277 279 275 277 274 266 260 252 257 266 269 259 248 240
164 161 161 160 158 154 147 149 149 147 151 153 158 162 162 162 163 167 174 186 199 205 215 226 235 241 241 242 245 250 252 256 255 258 261 268 273 277 277 274 276 280 278 278 278 275 270 268 267 267 261 264 264 264 259 255 258 263 260 259 256 254 256 260 262 264 264 265 267 267 272 274 278 282 282 273 262 266 278 284 278 270 260 244 242
161 160 161 157 150 147 144 140 142 144 147 154 158 158 159 157 160 169 176 189 195 202 213 227 233 238 241 242 246 249 254 254 255 258 267 271 275 276 280 282 282 278 279 279 276 274 275 276 273 271 277 277 278 276 274 271 264 260 260 257 255 252 248 248 250 254 257 259 261 259 266 268 272 278 281 283 286 286 288 291 290 291 279 263 253
159 157 156 149 142 139 138 142 142 148 151 149 151 152 153 154 157 166 175 188 195 203 217 227 229 232 234 241 251 254 256 257 261 267 274 279 285 286 285 282 278 280 281 280 282 286 284 281 284 281 282 281 278 279 277 275 273 270 268 264 258 256 254 248 244 242 245 247 252 255 251 264 265 271 275 281 284 284 282 283 284 292 287 279 281
150 152 146 137 138 138 141 140 142 145 144 148 146 147 145 149 157 167 178 188 197 204 220 224 229 231 233 241 251 259 261 263 268 275 281 286 289 289 288 288 288 286 282 284 286 288 286 287 285 284 283 284 281 281 279 278 276 274 271 269 265 261 261 260 255 246 242 248 245 245 249 248 262 268 273 275 280 287 288 285 282 283 287 291 286
146 144 137 140 140 141 139 139 137 140 144 142 140 143 145 153 163 174 186 188 195 210 218 224 226 228 232 241 256 263 266 269 272 281 288 291 294 294 290 287 286 282 285 287 287 284 283 282 281 279 279 281 282 280 281 281 277 276 274 274 272 266 262 261 262 261 259 258 261 259 255 265 264 267 270 272 278 282 290 292 292 291 290 294 294
136 140 137 139 140 137 135 133 136 138 138 138 142 145 152 164 170 177 178 188 202 215 219 222 227 228 232 247 261 266 269 272 278 286 293 298 299 298 291 287 285 285 285 284 286 289 290 291 292 291 292 290 285 281 283 280 282 282 280 278 277 272 267 264 261 264 264 262 263 265 263 260 265 268 268 272 273 272 278 281 285 286 286 283 291
129 136 132 132 129 132 132 135 135 139 139 142 145 151 157 164 173 179 181 192 202 210 215 218 225 221 235 248 256 267 268 273 282 292 298 301 302 304 298 295 289 285 283 278 275 269 268 272 274 277 279 276 274 280 283 280 278 275 271 267 266 268 268 265 259 254 253 252 255 258 261 260 261 262 267 268 268 268 267 272 278 280 282 283 281
128 126 126 131 135 138 137 138 135 139 142 145 148 155 162 168 171 178 182 194 202 212 223 222 224 224 231 243 255 265 270 277 287 293 299 304 307 308 301 293 289 287 283 281 281 280 284 287 291 289 283 287 289 285 284 285 278 276 275 273 270 269 270 271 269 260 256 252 249 248 252 252 253 253 254 259 263 265 266 265 262 260 266 272 272
150 145 141 142 146 146 146 139 137 141 143 144 149 156 160 167 170 175 179 196 202 210 213 226 226 224 233 243 256 267 273 281 288 296 302 307 311 307 301 295 293 286 286 290 287 285 283 279 282 289 294 296 294 293 291 288 284 277 273 272 271 271 268 266 268 268 266 260 257 255 254 252 254 253 254 255 258 261 264 267 264 267 268 268 268
149 144 139 136 133 135 133 130 132 134 138 142 147 150 153 162 169 181 180 194 200 201 217 230 230 229 236 247 259 269 275 285 293 298 304 308 312 308 304 301 290 295 293 282 287 284 276 275 281 287 294 298 297 296 296 298 291 281 272 269 268 264 261 261 263 263 264 264 262 262 262 263 264 261 257 260 262 260 252 254 258 262 262 260 264
143 141 135 128 124 117 111 111 116 124 127 133 139 146 156 168 171 176 191 196 199 206 218 231 231 242 245 255 266 271 271 275 287 300 308 311 313 308 305 302 301 293 291 292 286 279 277 281 290 301 302 298 300 299 299 301 296 294 289 284 279 274 272 264 255 255 254 256 257 260 261 264 264 260 260 260 261 258 253 253 257 253 256 260 259
118 103 113 115 115 116 123 123 123 127 132 129 132 136 147 164 176 186 199 198 200 209 213 230 239 255 259 249 249 260 276 286 291 303 310 313 315 313 305 305 298 297 297 291 294 303 304 302 304 306 306 306 303 301 299 296 293 288 282 278 275 275 278 276 274 278 280 277 276 271 267 264 259 257 253 252 252 250 251 248 248 248 252 255 253
126 121 119 118 120 120 119 121 122 122 127 131 133 145 161 172 176 191 201 212 195 220 225 240 238 248 258 261 269 277 271 290 298 307 310 314 315 317 306 300 296 297 299 304 306 307 309 310 311 309 308 306 304 302 301 301 300 295 287 275 270 270 271 266 267 267 265 264 262 265 267 265 260 257 254 253 250 248 247 246 245 242 241 243 243
127 126 126 123 121 120 122 121 119 122 126 130 136 157 171 167 177 186 203 190 194 224 229 220 230 270 283 281 272 278 294 307 311 309 313 316 317 318 314 306 307 309 310 307 308 311 312 312 307 307 308 307 309 311 310 307 303 298 291 291 288 283 274 262 262 265 267 269 267 267 266 264 265 256 252 251 247 245 243 244 245 243 239 237 237
131 130 129 129 130 129 128 128 128 128 135 142 150 160 158 166 188 196 196 192 206 221 213 199 236 307 300 294 290 303 309 310 313 313 316 317 319 319 316 315 315 315 311 311 314 313 311 305 303 306 311 314 314 313 314 315 314 304 297 295 295 287 279 264 254 255 256 259 259 260 261 261 260 260 252 251 248 244 244 241 245 243 237 234 232
132 131 132 133 132 133 135 136 135 138 143 148 158 159 165 172 187 191 194 205 202 207 184 154 357 299 300 303 310 316 314 315 313 315 317 319 320 318 317 318 319 319 319 315 312 309 307 305 310 314 316 316 317 318 318 318 313 311 310 309 314 313 288 273 256 249 250 253 259 258 258 257 259 256 252 249 250 249 247 245 244 245 238 232 234
136 135 136 135 130 128 129 129 135 136 144 152 156 161 165 174 184 187 191 208 200 194 170 137 29 296 300 307 312 316 318 314 314 315 320 320 320 323 323 322 324 325 321 314 310 307 309 313 314 316 318 317 317 317 315 312 313 316 317 317 318 317 316 291 272 262 260 261 261 264 262 262 260 260 252 247 249 253 252 249 247 247 243 242 238
134 132 128 129 131 131 127 126 128 137 148 158 163 162 163 178 182 177 189 194 192 185 163 146 165 301 301 308 312 315 317 316 316 314 314 315 325 325 325 328 328 326 324 317 314 316 317 315 314 314 315 316 318 317 315 314 317 317 317 317 314 313 311 309 304 300 290 284 271 260 260 259 257 255 251 245 243 245 248 250 247 243 237 240 244
131 134 134 128 134 138 135 139 139 144 156 156 162 158 167 177 174 177 187 185 185 176 158 142 81 290 299 306 312 316 318 318 318 315 321 327 327 324 329 329 330 330 326 316 323 327 320 318 317 317 315 315 314 313 313 314 314 314 315 315 313 309 305 299 299 297 294 290 289 287 274 263 260 256 249 246 242 241 239 243 243 241 237 235 240
142 143 136 134 137 141 137 137 138 145 156 159 159 161 173 178 177 186 186 182 181 172 145 140 216 279 293 306 307 314 318 322 325 329 334 332 329 326 328 328 333 333 331 329 337 330 321 320 318 319 317 317 317 314 314 314 313 314 315 316 311 308 305 302 299 290 287 289 290 295 299 290 263 252 251 245 247 244 242 241 237 241 237 239 242
127 129 132 129 132 134 128 143 148 144 148 155 160 163 169 175 181 176 179 185 181 154 142 162 210 250 292 297 308 311 321 328 331 333 333 333 334 334 334 339 339 340 336 341 342 327 320 326 330 331 332 329 329 325 320 317 318 316 313 317 317 316 314 312 307 301 299 300 300 300 298 298 296 276 253 249 247 246 238 242 240 242 241 235 240
127 134 135 130 129 127 130 138 132 137 144 147 145 136 204 193 180 173 183 197 194 193 170 172 203 266 266 290 305 313 323 322 331 337 337 338 338 339 342 345 344 341 342 349 346 332 335 336 334 335 336 334 329 327 323 321 321 322 320 322 322 320 319 315 309 304 304 301 298 297 297 300 298 298 283 257 247 247 243 242 245 237 241 237 241
130 135 139 136 140 133 135 132 139 141 145 144 147 147 158 199 209 201 187 187 186 188 148 131 16 13 26 213 338 345 336 339 343 343 343 343 343 346 349 351 348 347 349 354 343 338 336 336 336 334 332 330 329 325 323 323 320 321 324 320 315 321 323 320 315 312 309 303 299 294 295 297 301 302 301 297 275 253 248 238 240 241 238 238 241
144 146 138 134 138 137 134 138 140 141 140 145 150 152 159 158 191 211 205 198 188 164 140 88 57 68 52 42 31 6 356 355 354 351 349 349 351 355 356 356 353 353 353 353 340 337 338 337 332 331 328 328 324 322 321 320 319 318 321 325 323 315 316 320 320 316 310 307 304 303 299 299 297 300 299 295 295 284 261 247 238 239 237 236 235
125 134 137 132 135 136 138 140 144 143 143 145 150 157 160 164 165 171 181 181 167 145 98 72 65 71 55 46 31 26 16 11 5 1 359 359 359 1 3 359 358 356 358 355 347 335 336 333 328 324 325 320 321 322 318 316 316 317 315 313 317 323 321 316 315 309 310 313 314 312 310 303 301 298 295 294 294 289 280 257 242 237 236 235 236
131 140 144 144 138 144 141 144 142 141 142 138 144 150 162 164 158 157 154 169 165 159 101 60 55 52 48 41 29 25 20 17 13 11 10 9 8 6 4 354 350 357 1 352 343 337 332 328 326 322 320 318 316 316 314 314 318 317 311 304 298 300 312 316 313 309 312 317 314 311 307 303 301 298 294 294 291 292 288 282 261 243 236 235 239
128 151 152 150 132 143 140 141 132 128 129 129 133 133 142 141 145 153 165 161 160 161 210 309 13 46 50 35 25 26 21 19 18 17 16 15 15 9 1 356 355 348 351 348 341 335 328 324 321 321 318 314 313 312 314 313 308 312 315 309 299 294 291 299 302 311 320 321 319 312 309 307 302 294 291 288 290 287 284 282 281 259 242 238 238
122 121 131 140 122 120 124 130 131 132 133 134 133 131 134 143 143 145 145 144 143 155 182 137 293 333 47 36 25 19 21 21 22 22 19 19 16 14 14 4 351 345 339 337 336 330 325 319 317 315 313 310 310 311 308 309 308 300 300 310 308 301 306 311 312 318 319 315 309 309 311 305 299 294 288 282 278 276 273 276 274 273 255 239 235
125 123 133 133 125 114 115 107 120 126 121 108 113 116 116 115 111 119 117 116 108 118 105 311 330 26 56 35 11 359 5 16 17 22 21 19 20 25 13 357 344 337 336 334 331 328 327 324 319 312 311 311 309 309 309 305 304 301 303 302 297 298 306 312 320 319 317 314 314 313 309 304 300 293 288 285 280 276 274 273 273 270 262 243 234
125 130 127 125 114 122 120 124 125 120 111 117 120 121 123 118 120 117 118 115 134 135 158 168 69 76 41 0 358 356 348 355 4 12 11 11 13 8 359 345 341 338 333 329 331 327 324 320 322 320 312 308 305 306 310 308 304 307 309 304 302 300 319 321 316 318 318 314 311 306 298 289 292 296 292 282 279 278 275 273 274 275 265 244 233
107 126 130 131 133 132 130 126 123 123 120 118 121 126 129 125 126 126 128 123 132 156 174 152 85 74 45 356 339 344 3 8 13 3 353 350 353 357 347 343 338 331 329 330 327 326 324 322 318 315 308 308 307 308 307 307 306 300 297 301 299 303 322 324 324 326 324 320 316 311 305 305 302 297 287 284 281 275 273 275 274 274 270 253 228
121 124 133 134 130 134 119 115 115 119 122 123 127 130 127 133 142 141 139 141 157 173 172 137 111 83 35 332 294 1 22 3 359 345 336 340 344 343 344 338 337 332 331 329 329 328 322 319 319 319 316 309 305 305 308 306 304 301 301 301 300 316 322 323 329 330 329 326 321 317 314 310 299 297 289 281 277 274 275 275 275 272 271 258 231
116 122 135 139 132 131 116 112 118 125 127 126 129 133 134 129 130 134 141 142 154 158 147 133 111 80 220 271 344 46 100 20 336 335 328 328 326 327 332 335 331 331 329 327 325 323 321 318 316 312 310 307 307 307 305 306 306 306 306 308 316 329 327 327 330 331 331 330 326 321 317 313 308 300 297 291 286 283 277 274 272 272 268 257 230
123 124 124 127 133 125 124 117 117 118 105 113 121 124 124 128 134 137 138 150 155 158 141 135 121 137 285 14 40 73 96 132 28 324 315 323 316 319 321 321 324 325 324 322 321 319 318 319 317 317 314 314 308 305 308 308 310 308 309 312 323 333 333 335 334 333 333 327 327 322 317 313 310 304 294 291 287 281 276 272 269 271 274 261 227
133 112 121 120 132 133 130 123 121 124 125 126 117 107 111 121 128 125 135 142 154 154 142 134 125 127 328 27 50 74 90 80 42 320 318 309 305 311 315 318 322 321 318 315 312 311 312 314 314 317 318 316 317 313 308 305 302 305 307 308 324 334 335 336 336 335 333 331 329 325 321 315 310 305 295 290 286 285 277 280 282 281 282 265 230
103 103 98 101 108 97 99 116 119 115 113 104 102 113 115 118 121 128 134 141 153 146 133 129 131 131 201 16 34 63 72 55 17 336 303 307 306 312 313 317 317 319 321 319 319 318 318 316 316 315 312 315 317 317 311 301 313 313 302 310 326 334 339 341 339 337 336 333 328 326 324 315 311 305 301 299 299 297 299 296 292 290 290 277 233
118 126 129 125 122 117 117 107 106 107 106 114 114 109 113 124 129 135 140 147 149 138 129 129 122 147 127 132 48 73 59 47 322 289 303 303 306 308 314 316 318 320 318 317 319 321 319 318 315 316 317 317 317 318 316 315 322 318 300 318 328 335 344 343 339 334 333 330 325 315 312 316 315 312 311 312 312 308 306 302 300 296 294 280 236
115 121 116 116 120 112 116 114 114 119 129 128 126 129 127 120 125 138 143 141 143 142 136 134 137 137 136 129 114 87 52 7 282 283 285 299 303 308 308 313 315 315 314 314 316 315 316 316 319 319 318 318 320 322 322 320 319 316 314 327 333 333 342 341 337 337 337 335 331 328 323 320 320 319 323 321 316 315 309 306 299 291 280 271 243
115 111 114 112 119 106 105 112 123 129 115 118 113 126 131 138 135 133 131 130 135 134 136 135 144 137 142 141 98 63 9 319 296 295 289 287 293 299 309 315 316 313 316 316 314 315 318 320 321 320 319 318 318 320 326 327 322 309 319 332 333 340 349 346 343 342 340 336 332 329 330 329 324 325 326 325 323 324 321 311 307 301 288 264 266
114 113 110 109 116 118 124 124 120 128 109 114 119 126 126 134 139 146 141 140 144 143 137 135 138 139 142 133 119 127 296 264 280 268 282 288 304 310 316 317 319 322 319 316 317 317 317 319 320 321 322 322 323 324 325 330 328 316 316 335 336 343 350 349 346 348 345 339 335 336 334 334 332 329 328 330 328 329 327 320 314 309 300 275 270
114 120 125 128 120 126 128 131 125 125 123 120 117 130 130 136 142 138 140 144 147 150 143 136 131 132 131 131 108 199 271 269 267 277 288 300 308 315 318 321 320 321 320 320 316 318 317 319 321 322 322 321 323 325 327 320 320 313 323 337 339 348 353 353 352 353 349 343 340 339 340 339 339 338 336 332 333 329 322 315 311 305 311 308 244
118 118 110 112 113 119 115 119 118 112 116 127 135 131 134 132 140 145 149 148 146 141 133 126 126 125 115 123 117 247 264 276 292 298 310 312 315 320 319 323 323 325 324 320 316 315 317 318 320 320 323 321 324 324 327 316 313 318 332 339 342 348 355 355 353 355 354 348 345 345 345 343 342 343 346 345 342 339 331 325 318 314 316 326 329
104 115 119 121 113 115 118 115 108 113 129 138 136 139 145 144 145 141 144 151 147 137 128 129 123 125 125 133 159 234 247 259 262 276 293 309 316 319 320 324 324 326 321 317 317 318 318 319 319 320 323 324 325 325 327 327 317 319 340 341 344 349 355 358 356 356 356 353 348 349 349 349 348 350 351 351 347 346 336 329 321 322 327 332 332